Regional Weather Roundup
Issued by NWS

Home | Current Version | Previous Version | Text Only | Print | Product List | Glossary On
Versions: 1 2 3 4 5 6 7 8 9 10 11 12 13 14 15 16 17 18 19 20 21 22 23 24 25 26 27 28 29 30 31 32 33 34 35 36 37 38 39 40 41 42 43 44 45 46 47 48 49 50
000
ASUS43 KTOP 201308
RWRKS

WEATHER ROUNDUP FOR KANSAS
NATIONAL WEATHER SERVICE GOODLAND KS
800 AM CDT SAT SEP 20 2014

NOTE:  "FAIR" INDICATES FEW OR NO CLOUDS BELOW 12,000 FEET WITH NO
SIGNIFICANT WEATHER AND/OR OBSTRUCTIONS TO VISIBILITY.

KSZ001>006-013>018-027>032-041>047-201400-
NORTHWEST KANSAS

CITY           SKY/WX    TMP DP  RH WIND       PRES   REMARKS
GOODLAND       CLEAR     62  55  77 NW14      30.03R
HAYS           CLEAR     64  57  77 SW13      29.94S
HILL CITY      CLEAR     68  63  84 W8        29.93R
RUSSELL        CLEAR     67  62  84 S12       29.92R
$$

KSZ061>065-074>080-084>089-201400-
SOUTHWEST KANSAS

CITY           SKY/WX    TMP DP  RH WIND       PRES   REMARKS
DODGE CITY     CLEAR     63  60  90 S12       29.99S
ELKHART          N/A     62  58  87 S10         N/A
GARDEN CITY    CLEAR     62  61  96 S7        29.99R FOG
GREAT BEND     CLEAR     66  61  82 S10       29.96R
LIBERAL        CLEAR     63  57  82 S8        30.02S
PRATT          CLEAR     63  61  94 S8        29.99S
$$

KSZ066>073-081>083-090>101-201400-
SOUTHEAST KANSAS

CITY           SKY/WX    TMP DP  RH WIND       PRES   REMARKS
CHANUTE        CLOUDY    68  67  96 S7        30.01R FOG
HUTCHINSON     CLEAR     66  63  90 S3        29.98R FOG
MEDICINE LODGE   N/A     65  63  93 CALM      29.98S
NEWTON         CLEAR     68  63  83 SW10      30.01R
PARSONS        FOG       68  68 100 S5        30.02R VSB 1/4
WICHITA INTL   PTCLDY    67  65  93 S9        29.97R FOG
WICHITA JABRA  CLEAR     68  66  93 S9        29.98R FOG
WICHITA MCCONL CLEAR     68  67  99 S9        29.98S FOG
WINFIELD       CLEAR     69  68  96 S6        30.01R FOG
$$

KSZ007>012-019>026-033>040-048>060-102>105-201400-
NORTHEAST KANSAS

CITY           SKY/WX    TMP DP  RH WIND       PRES   REMARKS
CONCORDIA      CLEAR     69  64  84 S10       29.93R
EMPORIA        CLEAR     68  67  96 S6        29.99R
LAWRENCE       CLEAR     68  65  90 CALM      29.99R FOG
MANHATTAN      CLEAR     68  66  93 CALM      29.96R FOG
MARYSVILLE     PTCLDY    64  64 100 E3        29.96R FOG
OLATHE IND     CLEAR     68  67  96 S9        30.00R FOG
OLATHE EXE     CLEAR     68  67  96 SW5       30.00R FOG
SALINA         CLEAR     69  64  84 S12       29.95R
TOPEKA BILLARD CLEAR     68  66  93 CALM      29.98R FOG
TOPEKA FORBES  CLEAR     69  67  93 S3        29.99R FOG
$$


USA.gov is the U.S. government's official web portal to all federal, state and local government web resources and services.